Find Gonets-M No. 33L

NORAD ID: 54150 Int'l Des: 2022-139 Owner: GONETS Country: RU operational
LEOCIRCULARPOLAR

現在のビュー

3D地球を読み込み中...

Gonets-M No. 33Lについて

説明を読み込み中...

次回通過

Passes for default location (London). Set your location on the main map for personalized predictions.

高度履歴

Loading altitude history...

軌道要素

1 54150U 22139A 26151.51940493 .00000034 00000-0 17305-3 0 9998
2 54150 82.5078 358.6547 0020512 257.8854 101.9928 12.42890119163573
Epoch: May 31, 2026 • Age: 10 hours

現在のステータス

高度 1520.9 km
速度 7.10 km/s
衛星直下点 63.08°N, 146.87°E
打ち上げ日 Oct 22, 2022
運用期間 3.6 years
タイプ other

技術仕様

分類 Payload
質量 280.00 kg
乾燥質量 280.00 kg
総質量 280.00 kg
長さ 1.60 m
直径 0.80 m
スパン 7.00 m
形状 Cyl + Ant
製造者 RESH
バスタイプ Strela-3M
フェーズステータス In Orbit
所有者/国 GONETS/RU

Most Searched